STARLINK-32142, 60291

Orbit data source: Space-Track

STARLINK-32142, 60291 is a payload satellite owned by SpaceX/Seattle (US) in LEO that was launched on Sun, 28 Jul 2024 UTC via an FALCON 9 launch vehicle from the Air Force Eastern Test Range (AFETR). Payload-class satellites include a variety of spacecraft equipped with specific instruments for various scientific and technological missions. These include communications satellites like Starlink; space stations such as the ISS; scientific satellites like the Hubble; Earth observation satellites from companies like Planet Labs, Umbra, and HawkEye 360; GPS; miniature CubeSats for education and research; and military/defense satellites.

Loading next visibility...
Identifier
60291, 2024-132P
Orbit
LEO
Last TLE update
9 hours ago
Origin
Manufacturer
SpaceX/Seattle
Mission
Operational spacecraft
Bus & Motor
STARLINK V2M, Unknown motor
Mass
730 kg wet, ~700 kg dry
Launch date (UTC)
2024-07-28 (11 months ago)
Launch vehicle
FALCON 9
Launch site
Air Force Eastern Test Range (AFETR)
Object type
Payload
Rocket body
Debris
Shape & HBR
Unknown
Radar Cross Section
Large (>1 m²)

Expand to show TLE details & history

TLE from 9 hours ago
0 STARLINK-32142
1 60291U 24132P   25188.95145903 -.00000789  00000-0 -14514-4 0  9995
2 60291  53.1592 108.9456 0001508 105.9181 254.1986 15.30190015 54095
Epoch: 2025-07-07T22:50Z
TLE epoch observation values (Epoch: 2025-07-07T22:50:06.06Z)
Latitude
-0.00001°
Longitude
-159.73308°
Altitude
476.426 km
Speed
7.629 km/s
True Right ascension
07h 15m 46s
True Declination
0° 00' 00"
Sunlit
Object was in daylight at epoch
Visualization orbit readout
Latitude
-51.93323°
Longitude
126.45544°
Altitude
494.285 km
Speed
7.617 km/s
Apparent Right ascension
05h 24m 51s
Apparent Declination
-54° 23' 56"
Sunlit
Object is in daylight
Visualization observer readout
Local Sidereal Time
19:59:23
Azimuth
132.398° SE
Elevation
-60.52°
Doppler factor
1
Orbital elements
Apogee altitude
476.535 km
Perigee altitude
474.468 km
Semi-major axis
6,853.638 km
Eccentricity
0.00015
Inclination
53.1592°
RAAN
108.9456°
Arg. of periapsis
105.9181°
True anomaly
Unknown
Mean anomaly
254.1986°
Eccentric anomaly
Unknown
Mean motion
3.82526 °/min
Orbital period
94.11 mins
BSTAR
-0.000014514
Loading maneuver chart data...
Loading SW <> Apogee altitude chart data...
Loading historical data...
Loading historical data...
Loading historical data...
Loading historical data...
Loading historical data...
Loading historical data...
Loading historical data...

STARLINK-32142 Visibility forecast

Observer location: undefined°, undefined°

Span
Click to sort rows by Start time (UTC) header in descending order
Start Az.
Max El. time (UTC)
Max El. Az.
Max El.
End time (UTC)
End Az.
6 mins2025-07-08 20:56:45.244Z208.838° SW2025-07-08 20:59:45.244Z136.719° SSE37.495°2025-07-08 21:02:45.244Z61.971° ENE
4 mins2025-07-08 22:36:45.244Z304.363° NW2025-07-08 22:37:45.244Z329.826° NNW22.59°2025-07-08 22:40:45.244Z28.04° NE
5 mins2025-07-09 03:32:45.244Z332.21° NNW2025-07-09 03:34:45.244Z34.618° NE34.884°2025-07-09 03:37:45.244Z105.561° ESE
4 mins2025-07-09 05:10:45.244Z267.007° W2025-07-09 05:12:45.244Z222.927° SW19.961°2025-07-09 05:14:45.244Z185.335° SSW
|